Date String (YYYY-MM-DD hh:mm:ss) UTC,Instrument flags,Ambient pressure (hPa),Sample flow (lpm),Bypass flow (lpm),Sample temperature (°C),Ambient temperature (°C),ASC tube jacket temperature (°C),LED temperature (°C),Box temperature (°C),Sample RH (%),Span deviation,Mass concentration (μg/m³),Mass concentration (μg/m³),Mass concentration (μg/m³)
DateTimeUTC,F1_M11,P_M11,Q1_M11,Q2_M11,T1_M11,T2_M11,T3_M11,T4_M11,T5_M11,U1_M11,ZSPAN_M11,X0_M11,X2_M11,X1_M11
2021-12-20 16:00:00,,0827.3,4.99,0.00,23.8,23.2,00.0,32.7,25.7,07.4,0000.0,0001.37,0000.53,0000.38
2021-12-20 16:01:00,,0827.1,5.01,0.00,23.8,23.2,00.0,32.7,25.7,07.4,0000.0,0001.34,0000.54,0000.37
2021-12-20 16:02:00,,0827.2,5.00,0.00,23.9,23.2,00.0,32.7,25.6,07.4,0000.0,0001.47,0000.54,0000.37
2021-12-20 16:03:00,,0827.1,5.00,0.00,23.9,23.2,00.0,32.7,25.7,07.4,0000.0,0001.43,0000.53,0000.37
2021-12-20 16:04:00,,0827.1,5.02,0.00,23.9,23.2,00.0,32.8,25.7,07.5,0000.0,0001.46,0000.53,0000.37
2021-12-20 16:05:00,,0827.3,4.99,0.00,23.9,23.3,00.0,32.8,25.8,07.4,0000.0,0001.49,0000.54,0000.37
2021-12-20 16:06:00,,0826.9,5.01,0.00,23.9,23.3,00.0,32.8,25.8,07.5,0000.0,0001.51,0000.54,0000.37
2021-12-20 16:07:00,,0827.2,4.99,0.00,24.0,23.3,00.0,32.8,25.9,07.6,0000.0,0001.36,0000.51,0000.37
2021-12-20 16:08:00,,0827.3,5.01,0.00,24.0,23.3,00.0,32.8,25.9,07.5,0000.0,0002.38,0000.54,0000.37
2021-12-20 16:09:00,,0827.2,5.00,0.00,24.0,23.3,00.0,32.8,25.9,07.5,0000.0,0002.65,0000.53,0000.36
2021-12-20 16:10:00,,0826.9,4.99,0.00,24.0,23.4,00.0,32.9,25.9,07.4,0000.0,0002.68,0000.53,0000.36
2021-12-20 16:11:00,,0827.0,5.01,0.00,24.0,23.4,00.0,32.9,25.9,07.5,0000.0,0002.72,0000.56,0000.36
2021-12-20 16:12:00,,0826.8,4.99,0.00,24.1,23.4,00.0,32.9,25.9,07.5,0000.0,0002.65,0000.56,0000.36
2021-12-20 16:13:00,,0827.0,5.01,0.00,24.1,23.4,00.0,32.9,25.9,07.5,0000.0,0002.42,0000.55,0000.36
2021-12-20 16:14:00,,0826.9,5.01,0.00,24.1,23.4,00.0,32.9,26.0,07.4,0000.0,0002.33,0000.53,0000.35
2021-12-20 16:15:00,,0826.9,4.99,0.00,24.1,23.5,00.0,32.9,26.0,07.5,0000.0,0002.41,0000.57,0000.35
2021-12-20 16:16:00,,0826.9,5.00,0.00,24.1,23.5,00.0,33.0,26.0,07.5,0000.0,0002.71,0000.64,0000.34
2021-12-20 16:17:00,,0826.9,5.01,0.00,24.2,23.5,00.0,33.0,26.0,07.5,0000.0,0002.88,0000.69,0000.35
2021-12-20 16:18:00,,0826.9,4.99,0.00,24.2,23.5,00.0,33.0,26.1,07.5,0000.0,0003.69,0000.71,0000.35
2021-12-20 16:19:00,,0827.2,5.00,0.00,24.2,23.5,00.0,33.0,26.1,07.5,0000.0,0003.74,0000.71,0000.35
2021-12-20 16:20:00,,0826.9,5.01,0.00,24.2,23.5,00.0,33.0,26.1,07.5,0000.0,0003.65,0000.70,0000.35
2021-12-20 16:21:00,,0827.0,5.00,0.00,24.3,23.6,00.0,33.1,26.1,07.5,0000.0,0003.63,0000.70,0000.35
2021-12-20 16:22:00,,0827.1,5.01,0.00,24.3,23.6,00.0,33.1,26.1,07.6,0000.0,0003.48,0000.71,0000.37
2021-12-20 16:23:00,,0827.0,4.98,0.00,24.3,23.6,00.0,33.1,26.2,07.6,0000.0,0003.57,0000.75,0000.37
2021-12-20 16:24:00,,0827.0,5.02,0.00,24.3,23.6,00.0,33.1,26.2,07.5,0000.0,0003.64,0000.77,0000.37
2021-12-20 16:25:00,,0827.0,4.99,0.00,24.3,23.7,00.0,33.1,26.2,07.5,0000.0,0003.68,0000.78,0000.37
2021-12-20 16:26:00,,0827.1,5.00,0.00,24.3,23.7,00.0,33.2,26.2,07.5,0000.0,0003.85,0000.76,0000.38
2021-12-20 16:27:00,,0827.2,5.00,0.00,24.4,23.7,00.0,33.2,26.3,07.5,0000.0,0004.58,0000.68,0000.38
2021-12-20 16:28:00,,0827.0,4.99,0.00,24.4,23.7,00.0,33.2,26.3,07.5,0000.0,0004.37,0000.63,0000.38
2021-12-20 16:29:00,,0826.9,5.00,0.00,24.4,23.7,00.0,33.2,26.3,07.4,0000.0,0003.90,0000.64,0000.39
2021-12-20 16:30:00,,0827.0,4.99,0.00,24.4,23.8,00.0,33.2,26.3,07.4,0000.0,0003.14,0000.66,0000.39
2021-12-20 16:31:00,,0827.0,5.01,0.00,24.4,23.8,00.0,33.3,26.3,07.4,0000.0,0003.05,0000.69,0000.38
2021-12-20 16:32:00,,0827.0,5.00,0.00,24.4,23.8,00.0,33.3,26.3,07.3,0000.0,0003.24,0000.72,0000.39
2021-12-20 16:33:00,,0827.1,5.00,0.00,24.5,23.8,00.0,33.3,26.3,07.2,0000.0,0004.03,0000.71,0000.38
2021-12-20 16:34:00,,0826.9,5.00,0.00,24.5,23.8,00.0,33.3,26.3,07.3,0000.0,0004.36,0000.67,0000.38
2021-12-20 16:35:00,,0827.1,4.99,0.00,24.5,23.8,00.0,33.3,26.4,07.2,0000.0,0004.63,0000.64,0000.38
2021-12-20 16:36:00,,0827.0,5.01,0.00,24.5,23.8,00.0,33.4,26.4,07.2,0000.0,0005.64,0000.63,0000.38
2021-12-20 16:37:00,,0827.0,5.00,0.00,24.5,23.8,00.0,33.4,26.4,07.1,0000.0,0005.93,0000.66,0000.39
2021-12-20 16:38:00,,0827.1,5.01,0.00,24.5,23.8,00.0,33.4,26.4,07.2,0000.0,0004.94,0000.69,0000.39
2021-12-20 16:39:00,,0827.3,5.00,0.00,24.5,23.8,00.0,33.4,26.4,07.1,0000.0,0004.86,0000.68,0000.39
2021-12-20 16:40:00,,0826.9,5.00,0.00,24.5,23.8,00.0,33.4,26.4,07.1,0000.0,0004.78,0000.67,0000.39
2021-12-20 16:41:00,,0826.9,5.00,0.00,24.5,23.8,00.0,33.4,26.4,07.2,0000.0,0004.71,0000.64,0000.39
2021-12-20 16:42:00,,0826.9,5.00,0.00,24.5,23.8,00.0,33.4,26.4,07.1,0000.0,0004.71,0000.60,0000.39
2021-12-20 16:43:00,,0826.9,5.00,0.00,24.5,23.8,00.0,33.4,26.4,07.1,0000.0,0004.75,0000.57,0000.39
2021-12-20 16:44:00,,0826.9,5.00,0.00,24.5,23.8,00.0,33.5,26.4,07.1,0000.0,0004.32,0000.58,0000.39
2021-12-20 16:45:00,,0826.9,5.00,0.00,24.6,23.8,00.0,33.5,26.4,07.1,0000.0,0003.78,0000.58,0000.38
2021-12-20 16:46:00,,0826.9,5.00,0.00,24.6,23.8,00.0,33.5,26.4,07.1,0000.0,0003.73,0000.60,0000.38
2021-12-20 16:47:00,,0827.0,4.98,0.00,24.6,23.8,00.0,33.5,26.4,07.2,0000.0,0002.80,0000.63,0000.38
2021-12-20 16:48:00,,0827.0,5.00,0.00,24.6,23.8,00.0,33.5,26.4,07.2,0000.0,0002.60,0000.61,0000.37
2021-12-20 16:49:00,,0827.0,5.00,0.00,24.6,23.8,00.0,33.5,26.4,07.2,0000.0,0002.23,0000.55,0000.36
2021-12-20 16:50:00,,0827.3,4.99,0.00,24.6,23.8,00.0,33.5,26.4,07.2,0000.0,0002.41,0000.56,0000.36
2021-12-20 16:51:00,,0827.1,5.02,0.00,24.6,23.9,00.0,33.5,26.4,07.1,0000.0,0002.57,0000.58,0000.36
2021-12-20 16:52:00,,0827.1,4.99,0.00,24.6,23.9,00.0,33.5,26.4,07.1,0000.0,0002.52,0000.56,0000.36
2021-12-20 16:53:00,,0827.2,5.02,0.00,24.6,23.9,00.0,33.5,26.4,07.1,0000.0,0002.13,0000.57,0000.35
2021-12-20 16:54:00,,0827.2,4.99,0.00,24.6,23.9,00.0,33.5,26.5,07.1,0000.0,0001.76,0000.56,0000.35
2021-12-20 16:55:00,,0827.2,5.00,0.00,24.6,23.9,00.0,33.6,26.5,07.1,0000.0,0001.56,0000.53,0000.35
2021-12-20 16:56:00,,0827.2,5.01,0.00,24.6,23.9,00.0,33.6,26.5,07.1,0000.0,0002.35,0000.53,0000.35
2021-12-20 16:57:00,,0827.2,4.99,0.00,24.6,23.9,00.0,33.6,26.4,07.1,0000.0,0002.52,0000.52,0000.35
2021-12-20 16:58:00,,0827.2,5.01,0.00,24.6,23.9,00.0,33.6,26.4,07.1,0000.0,0002.19,0000.51,0000.35
2021-12-20 16:59:00,,0827.2,5.00,0.00,24.7,23.9,00.0,33.6,26.5,07.1,0000.0,0002.34,0000.55,0000.35
